Bookmark and Share
Track history (hours):
 

Parsival

Last reported at 2014-Apr-22 18:16 UTC. Time now 2014-Apr-25 06:18 UTC.
Position N 43°04' E 009°58'.

; draft 3.5 m.

Type: Cargo ship. MMSI: 304010881.

NotesDate/timePositionNaut miles runAvg speedWind from/ knotsBaromVisibWave heightAir tempDewpointWater temp
2014-Apr-22 18:16N 43°04' E 009°58'7 9.9
2014-Apr-22 17:32N 43°10' E 009°54'10 9.9
2014-Apr-22 16:34N 43°19' E 009°48'10 9.5
2014-Apr-22 15:34N 43°28' E 009°45'9 8.8
2014-Apr-22 14:33N 43°36' E 009°50'10 9.7
2014-Apr-22 13:33N 43°46' E 009°50'10 9.7
2014-Apr-22 12:33N 43°56' E 009°52'9 9.3
2014-Apr-22 11:33N 44°05' E 009°51'1 1.4
2014-Apr-22 10:32N 44°06' E 009°50'0 0.0
2014-Apr-22 09:32N 44°06' E 009°50'0 0.0
2014-Apr-22 08:32N 44°06' E 009°50'0 0.0
2014-Apr-22 07:32N 44°06' E 009°50'0 0.0
2014-Apr-22 06:32N 44°06' E 009°50'0 0.0
2014-Apr-22 05:32N 44°06' E 009°50'0 0.0
2014-Apr-22 04:32N 44°06' E 009°50'0 0.0
2014-Apr-22 03:32N 44°06' E 009°50'0 0.0
2014-Apr-22 02:32N 44°06' E 009°50'0 0.0
2014-Apr-22 01:32N 44°06' E 009°50'0 0.0
2014-Apr-22 00:32N 44°06' E 009°50'0 0.0
2014-Apr-21 23:32N 44°06' E 009°50'0 0.0
2014-Apr-21 22:32N 44°06' E 009°50'0 0.0
2014-Apr-21 21:32N 44°06' E 009°50'0 0.0
2014-Apr-21 20:32N 44°06' E 009°50'0 0.0
2014-Apr-21 19:32N 44°06' E 009°50'0 0.0
2014-Apr-21 18:32N 44°06' E 009°50'0 0.0
2014-Apr-21 17:32N 44°06' E 009°50'0 0.0
2014-Apr-21 16:32N 44°06' E 009°50'0 0.0
2014-Apr-21 15:32N 44°06' E 009°50'0 0.0
2014-Apr-21 14:32N 44°06' E 009°50'0 0.0
2014-Apr-21 13:32N 44°06' E 009°50'0 0.0
2014-Apr-21 12:32N 44°06' E 009°50'0 0.0
2014-Apr-21 11:32N 44°06' E 009°50'0 0.0
2014-Apr-21 10:32N 44°06' E 009°50'0 0.0
2014-Apr-21 09:32N 44°06' E 009°50'0 0.0
2014-Apr-21 08:32N 44°06' E 009°50'0 0.0
2014-Apr-21 07:32N 44°06' E 009°50'0 0.0
2014-Apr-21 06:32N 44°06' E 009°50'0 0.0
2014-Apr-21 05:32N 44°06' E 009°50'0 0.0
2014-Apr-21 04:32N 44°06' E 009°50'0 0.0
2014-Apr-21 03:32N 44°06' E 009°50'0 0.0
2014-Apr-21 02:32N 44°06' E 009°50'0 0.0
2014-Apr-21 01:32N 44°06' E 009°50'0 0.0
2014-Apr-21 00:29N 44°06' E 009°50'0 0.0
2014-Apr-20 23:32N 44°06' E 009°50'0 0.0
2014-Apr-20 22:29N 44°06' E 009°50'0 0.0
2014-Apr-20 21:32N 44°06' E 009°50'0 0.0
2014-Apr-20 20:32N 44°06' E 009°50'0 0.0
2014-Apr-20 19:32N 44°06' E 009°50'0 0.0
2014-Apr-20 18:32N 44°06' E 009°50'0 0.0
2014-Apr-20 17:29N 44°06' E 009°50'0 0.0
2014-Apr-20 16:32N 44°06' E 009°50'0 0.0
2014-Apr-20 15:32N 44°06' E 009°50'0 0.0
2014-Apr-20 14:32N 44°06' E 009°50'0 0.0
2014-Apr-20 13:32N 44°06' E 009°50'0 0.0
2014-Apr-20 12:32N 44°06' E 009°50'0 0.0
2014-Apr-20 11:32N 44°06' E 009°50'0 0.0
2014-Apr-20 10:32N 44°06' E 009°50'0 0.0
2014-Apr-20 09:32N 44°06' E 009°50'0 0.0
2014-Apr-20 08:32N 44°06' E 009°50'0 0.0
2014-Apr-20 07:32N 44°06' E 009°50'0 0.0
2014-Apr-20 06:32N 44°06' E 009°50'0 0.0
2014-Apr-20 05:32N 44°06' E 009°50'0 0.0
2014-Apr-20 04:32N 44°06' E 009°50'0 0.0
2014-Apr-20 03:32N 44°06' E 009°50'0 0.0
2014-Apr-20 02:32N 44°06' E 009°50'0 0.0
2014-Apr-20 01:32N 44°06' E 009°50'0 0.0
2014-Apr-20 00:32N 44°06' E 009°50'0 0.0
2014-Apr-19 23:32N 44°06' E 009°50'0 0.0
2014-Apr-19 22:32N 44°06' E 009°50'0 0.0
2014-Apr-19 21:32N 44°06' E 009°50'0 0.0
2014-Apr-19 20:32N 44°06' E 009°50'0 0.0
2014-Apr-19 19:32N 44°06' E 009°50'0 0.0
2014-Apr-19 18:32N 44°06' E 009°50'0 0.0
2014-Apr-19 17:32N 44°06' E 009°50'0 0.0
2014-Apr-19 16:32N 44°06' E 009°50'0 0.0
2014-Apr-19 15:32N 44°06' E 009°50'0 0.0
2014-Apr-19 14:32N 44°06' E 009°50'0 0.0
2014-Apr-19 13:32N 44°06' E 009°50'0 0.0
2014-Apr-19 12:32N 44°06' E 009°50'0 0.0
2014-Apr-19 11:32N 44°06' E 009°50'0 0.0
2014-Apr-19 10:32N 44°06' E 009°50'0 0.0
2014-Apr-19 09:32N 44°06' E 009°50'0 0.0
2014-Apr-19 08:32N 44°06' E 009°50'0 0.0
2014-Apr-19 07:32N 44°06' E 009°50'0 0.0
2014-Apr-19 06:32N 44°06' E 009°50'0 0.0
2014-Apr-19 05:32N 44°06' E 009°50'0 0.0
2014-Apr-19 04:32N 44°06' E 009°50'0 0.0
2014-Apr-19 03:32N 44°06' E 009°50'0 0.0
2014-Apr-19 02:32N 44°06' E 009°50'0 0.0
2014-Apr-19 01:32N 44°06' E 009°50'0 0.0
2014-Apr-19 00:32N 44°06' E 009°50'0 0.0
2014-Apr-18 23:32N 44°06' E 009°50'0 0.0
2014-Apr-18 22:32N 44°06' E 009°50'0 0.0
2014-Apr-18 21:32N 44°06' E 009°50'0 0.0
2014-Apr-18 20:32N 44°06' E 009°50'0 0.0
2014-Apr-18 19:32N 44°06' E 009°50'0 0.0
2014-Apr-18 18:32N 44°06' E 009°50'0 0.0
2014-Apr-18 17:32N 44°06' E 009°50'0 0.0
2014-Apr-18 16:32N 44°06' E 009°50'1 0.8
2014-Apr-18 15:33N 44°06' E 009°51'8 7.8
2014-Apr-18 14:33N 43°60' E 009°58'7 7.1
2014-Apr-18 13:33N 43°53' E 009°54'8 8.5
2014-Apr-18 12:33N 43°46' E 009°48'6 6.4
2014-Apr-18 11:33N 43°40' E 009°44'6 6.0
2014-Apr-18 10:33N 43°35' E 009°40'6 5.6
2014-Apr-18 09:33N 43°31' E 009°35'6 5.8
2014-Apr-18 08:33N 43°25' E 009°32'6 5.6
2014-Apr-18 07:33N 43°21' E 009°28'6 5.5
2014-Apr-18 06:33N 43°16' E 009°24'312 9.1
2014-Apr-16 20:28N 39°35' E 004°31'9 8.7
2014-Apr-16 19:26N 39°29' E 004°22'11 8.2
2014-Apr-16 18:07N 39°22' E 004°11'14 8.8
2014-Apr-16 16:29N 39°14' E 003°56'9 8.2
2014-Apr-16 15:24N 39°09' E 003°46'8 8.7
2014-Apr-16 14:32N 39°06' E 003°38'8 8.7
2014-Apr-16 13:33N 39°01' E 003°28'9 9.0
2014-Apr-16 12:33N 38°57' E 003°18'9 9.3
2014-Apr-16 11:33N 38°52' E 003°08'9 9.3
2014-Apr-16 10:33N 38°47' E 002°58'9 8.8
2014-Apr-16 09:33N 38°42' E 002°48'9 8.7
2014-Apr-16 08:33N 38°38' E 002°39'18 9.0
2014-Apr-16 06:31N 38°28' E 002°19'9 9.6
2014-Apr-16 05:32N 38°24' E 002°08'21 9.6
2014-Apr-16 03:20N 38°12' E 001°45'362 8.7
2014-Apr-14 09:33N 35°56' W 005°15'3 3.1
2014-Apr-14 08:33N 35°54' W 005°18'0 0.0
2014-Apr-14 07:33N 35°54' W 005°18'2 2.3
2014-Apr-14 06:34N 35°56' W 005°20'4 4.1
2014-Apr-14 05:33N 35°60' W 005°21'11 1.6
2014-Apr-13 22:18N 36°11' W 005°25'0 0.0
2014-Apr-13 21:30N 36°11' W 005°25'0 0.0
2014-Apr-13 20:30N 36°11' W 005°25'0 0.0
2014-Apr-13 19:30N 36°11' W 005°25'0 0.0
2014-Apr-13 18:33N 36°11' W 005°25'0 0.0
2014-Apr-13 17:33N 36°11' W 005°25'0 0.0
2014-Apr-13 16:33N 36°11' W 005°25'0 0.0
2014-Apr-13 15:30N 36°11' W 005°25'0 0.0
2014-Apr-13 14:33N 36°11' W 005°25'0 0.0
2014-Apr-13 13:27N 36°11' W 005°25'0 0.0
2014-Apr-13 12:33N 36°11' W 005°25'0 0.0
2014-Apr-13 11:21N 36°11' W 005°25'0 0.0
2014-Apr-13 10:24N 36°11' W 005°25'0 0.0
2014-Apr-13 09:18N 36°11' W 005°25'0 0.0
2014-Apr-13 08:30N 36°11' W 005°25'0 0.0
2014-Apr-13 05:33N 36°11' W 005°25'2 2.4
2014-Apr-13 04:31N 36°08' W 005°24'5 4.7
2014-Apr-13 03:33N 36°04' W 005°21'5 5.3
2014-Apr-13 02:33N 35°59' W 005°20'9 8.5
2014-Apr-13 01:33N 35°57' W 005°31'8 7.5
2014-Apr-13 00:32N 35°56' W 005°40'  

Dump ship's entire track history

sailing weather and tide predictions

Parsival — V2MS — position and weather